全球星 M093星 (GLOBALSTAR M093)

导读 | 星芒AI

GLOBALSTAR M093 是 Globalstar 卫星通信公司运营的一颗低轨道(LEO)移动通信卫星,属于其第二代卫星星座(Globalstar 2)的一部分。该卫星用于提供语音和数据通信服务,主要面向偏远地区和移动用户。M093 卫星采用先进通信技术,支持多种终端接入,提升通信质量和覆盖范围。它运行在约 1,414 公里的轨道高度,与星座中其他卫星协同工作,确保全球范围内的连续通信服务。

基本信息
目录编号:
39073
目录名称:
GLOBALSTAR M093
国际标识:
2013-005B
轨道中心:
EARTH
卫星名称:
全球星 M093星
卫星全名:
全球星 M093星 (GLOBALSTAR M093)
卫星状态:
在轨 (已飞行4696 天)
发射日期:
2013-02-06 UTC
国别 :
(GLOB)
星等 :
--
轨道信息
数据来源 国际轨道数据 AOE轨道数据
星历时间 2025-12-15T14:30:01+0800
18小时前
查看轨道信息
2025-12-14T02:00:00+0800
2天前
查看轨道信息
半长轴 7791.722km 7791.722km
偏心率 0.0000319 0.0000223
轨道倾角 52.011° 52.010°
近地点辐角 115.085° 123.683°
升交点赤经 76.470° 81.099°
平近点角 245.005° 162.040°
近地点 1413.338km 1413.413km
远地点 1413.836km 1413.761km
周期 114.080分钟 114.080分钟
每日圈数 12.62271 12.62271
详细信息
固有亮度:
5
最大亮度:
7.2
平衡模式:
三轴稳定
覆盖范围:
全球
运营商:
全球星公司
运营商所在国:
美国
使用方式:
暂无
卫星简介
全球星星座由48颗卫星加8颗备份星组成。这些卫星分布在8个倾角为52度的圆形轨道平面上,每个轨道平面6颗卫星,另有1 颗备用星。轨道高度约为1414km,传输时延和处理时延小于300ms,整个系统的覆盖区为南北纬70度以内的地区。该卫星仍在工作。
2D轨道图
3D轨道图
轨道高度分析图
轨道倾角分析图
轨道综合分析图
查看轨道综合分析图